START_TIME,STEP,MOV.,H8,t_acc.,H43,t_acc.,M25,t_acc.,H9,t_acc.
1979-07-20 00:00:29.310 ,0,0,0.,12.0,0.,12.0,0.,12.0,0.,12.0
1979-07-20 00:00:41.310 ,0,0,0.,12.0,0.,12.0,0.,12.0,0.,12.0
1979-07-20 00:00:53.310 ,1,0,0.,12.0,0.,12.0,0.,12.0,0.,12.0
1979-07-20 00:01:05.310 ,1,0,0.,12.0,0.,12.0,0.,12.0,0.,12.0
1979-07-20 00:01:17.310 ,1,0,0.,12.0,0.,12.0,0.,12.0,0.,12.0
1979-07-20 00:01:29.310 ,1,0,0.,12.0,0.,12.0,0.,12.0,0.,12.0
1979-07-20 00:01:41.310 ,2,0,0.,12.0,0.,12.0,0.,12.0,0.,12.0
1979-07-20 00:01:53.310 ,2,0,0.,12.0,0.,12.0,0.,12.0,0.,12.0
1979-07-20 00:02:05.310 ,2,0,0.,12.0,0.,12.0,0.,12.0,0.,12.0
1979-07-20 00:02:17.310 ,2,0,0.,12.0,0.,12.0,0.,12.0,0.,12.0
1979-07-20 00:02:29.310 ,3,0,0.,12.0,0.,12.0,0.,12.0,0.,12.0
1979-07-20 00:02:41.310 ,3,0,0.,12.0,0.,12.0,0.,12.0,0.,12.0
1979-07-20 00:02:53.310 ,3,0,0.,12.0,0.,12.0,0.,12.0,0.,12.0
1979-07-20 00:03:05.310 ,3,0,0.,12.0,0.,12.0,0.,12.0,0.,12.0
1979-07-20 00:03:17.310 ,4,0,0.,12.0,0.,12.0,0.,12.0,0.,12.0
1979-07-20 00:03:29.310 ,4,0,0.,12.0,0.,12.0,0.,12.0,0.,12.0
1979-07-20 00:03:41.310 ,4,0,0.,12.0,0.,12.0,0.,12.0,0.,12.0
1979-07-20 00:03:53.310 ,4,0,0.,12.0,0.,12.0,0.,12.0,0.,12.0
1979-07-20 00:04:05.310 ,5,0,0.,12.0,0.,12.0,0.,12.0,0.,12.0
1979-07-20 00:04:17.310 ,5,0,0.,12.0,0.,12.0,0.,12.0,0.,12.0
1979-07-20 00:04:29.310 ,5,0,0.,12.0,0.,12.0,0.,12.0,0.,12.0
1979-07-20 00:04:41.310 ,5,0,0.,12.0,0.,12.0,0.,12.0,0.,12.0
1979-07-20 00:04:53.310 ,6,0,0.,12.0,0.,12.0,0.,12.0,0.,12.0
1979-07-20 00:05:05.310 ,6,0,0.,12.0,0.,12.0,0.,12.0,0.,12.0
1979-07-20 00:05:17.310 ,6,0,0.,12.0,0.,12.0,0.,12.0,0.,12.0
1979-07-20 00:05:29.310 ,6,0,0.,12.0,0.,12.0,0.,12.0,0.,12.0
1979-07-20 00:05:41.310 ,7,0,0.,12.0,0.,12.0,0.,12.0,0.,12.0
1979-07-20 00:05:53.310 ,7,0,0.,12.0,0.,12.0,0.,12.0,0.,12.0
1979-07-20 00:06:05.310 ,7,0,0.,12.0,0.,12.0,0.,12.0,0.,12.0
1979-07-20 00:06:17.310 ,7,0,0.,12.0,0.,12.0,0.,12.0,0.,12.0
1979-07-20 00:06:29.310 ,7,0,0.,12.0,0.,12.0,0.,12.0,0.,12.0
1979-07-20 00:06:41.310 ,7,0,0.,12.0,0.,12.0,0.,12.0,0.,12.0
1979-07-20 00:06:53.310 ,7,0,0.,12.0,0.,12.0,0.,12.0,0.,12.0
1979-07-20 00:07:05.310 ,7,0,0.,12.0,0.,12.0,0.,12.0,0.,12.0
1979-07-20 00:07:17.310 ,6,0,0.,12.0,0.,12.0,0.,12.0,0.,12.0
1979-07-20 00:07:29.310 ,6,0,0.,12.0,0.,12.0,0.,12.0,0.,12.0
1979-07-20 00:07:41.310 ,6,0,0.,12.0,0.,12.0,0.,12.0,0.,12.0
1979-07-20 00:07:53.310 ,6,0,0.,12.0,0.,12.0,0.,12.0,0.,12.0
1979-07-20 00:08:05.310 ,5,0,0.,12.0,0.,12.0,0.,12.0,0.,12.0
1979-07-20 00:08:17.310 ,5,0,0.,12.0,0.,12.0,0.,12.0,0.,12.0
1979-07-20 00:08:29.310 ,5,0,0.,12.0,0.,12.0,0.,12.0,0.,12.0
1979-07-20 00:08:41.310 ,5,0,0.,12.0,0.,12.0,0.,12.0,0.,12.0
1979-07-20 00:08:53.310 ,4,0,0.,12.0,0.,12.0,0.,12.0,0.,12.0
1979-07-20 00:09:05.310 ,4,0,0.,12.0,0.,12.0,0.,12.0,0.,12.0
1979-07-20 00:09:17.310 ,4,0,0.,12.0,0.,12.0,0.,12.0,0.,12.0
1979-07-20 00:09:29.310 ,4,0,0.,12.0,0.,12.0,0.,12.0,0.,12.0
1979-07-20 00:09:41.310 ,3,0,0.,12.0,0.,12.0,0.,12.0,0.,12.0
1979-07-20 00:09:53.310 ,3,0,0.,12.0,0.,12.0,0.,12.0,0.,12.0
1979-07-20 00:10:05.310 ,3,0,0.,12.0,0.,12.0,0.,12.0,0.,12.0
1979-07-20 00:10:17.310 ,3,0,0.,12.0,0.,12.0,0.,12.0,0.,12.0
1979-07-20 00:10:29.310 ,2,0,0.,12.0,0.,12.0,0.,12.0,0.,12.0
1979-07-20 00:10:41.310 ,2,0,0.,12.0,0.,12.0,0.,12.0,0.,12.0
1979-07-20 00:10:53.310 ,2,0,0.,12.0,0.,12.0,0.,12.0,0.,12.0
1979-07-20 00:11:05.310 ,2,0,0.,12.0,0.,12.0,0.,12.0,0.,12.0
1979-07-20 00:11:17.310 ,1,0,0.,12.0,0.,12.0,0.,12.0,0.,12.0
1979-07-20 00:11:29.310 ,1,0,0.,12.0,0.,12.0,0.,12.0,0.,12.0
1979-07-20 00:11:41.310 ,1,0,0.,12.0,0.,12.0,0.,12.0,0.,12.0
1979-07-20 00:11:53.310 ,1,0,0.,12.0,0.,12.0,0.,12.0,0.,12.0
1979-07-20 00:12:05.310 ,0,0,0.,12.0,0.,12.0,0.,12.0,0.,12.0
1979-07-20 00:12:17.310 ,0,0,0.,12.0,0.,12.0,0.,12.0,0.,12.0
1979-07-20 00:12:29.310 ,0,0,0.,12.0,0.,12.0,0.,12.0,0.,12.0
1979-07-20 00:12:41.310 ,0,0,0.,12.0,0.,12.0,0.,12.0,0.,12.0
1979-07-20 00:12:53.310 ,0,0,0.,12.0,0.,12.0,0.,12.0,0.,12.0
1979-07-20 00:13:05.310 ,0,0,0.,12.0,0.,12.0,0.,12.0,0.,12.0
1979-07-20 00:13:17.310 ,0,0,0.,12.0,0.,12.0,0.,12.0,0.,12.0
1979-07-20 00:13:29.310 ,0,0,0.,12.0,0.,12.0,0.,12.0,0.,12.0
1979-07-20 00:13:41.310 ,1,0,0.,12.0,0.,12.0,0.,12.0,0.,12.0
1979-07-20 00:13:53.310 ,1,0,0.,12.0,0.,12.0,0.,12.0,0.,12.0
1979-07-20 00:14:05.310 ,1,0,0.,12.0,0.,12.0,0.,12.0,0.,12.0
1979-07-20 00:14:17.310 ,1,0,0.,12.0,0.,12.0,0.,12.0,0.,12.0
1979-07-20 00:14:29.310 ,2,0,0.,12.0,0.,12.0,0.,12.0,0.,12.0
1979-07-20 00:14:41.310 ,2,0,0.,12.0,0.,12.0,0.,12.0,0.,12.0
1979-07-20 00:14:53.310 ,2,0,0.,12.0,0.,12.0,0.,12.0,0.,12.0
1979-07-20 00:15:05.310 ,2,0,0.,12.0,0.,12.0,0.,12.0,0.,12.0
1979-07-20 00:15:17.310 ,3,0,0.,12.0,0.,12.0,0.,12.0,0.,12.0
1979-07-20 00:15:29.310 ,3,0,0.,12.0,0.,12.0,0.,12.0,0.,12.0
1979-07-20 00:15:41.310 ,3,0,0.,12.0,0.,12.0,0.,12.0,0.,12.0
1979-07-20 00:15:53.310 ,3,0,0.,12.0,0.,12.0,0.,12.0,0.,12.0
1979-07-20 00:16:05.310 ,4,0,0.,12.0,0.,12.0,0.,12.0,0.,12.0
1979-07-20 00:16:17.310 ,4,0,0.,12.0,0.,12.0,0.,12.0,0.,12.0
1979-07-20 00:16:29.310 ,4,0,0.,12.0,0.,12.0,0.,12.0,0.,12.0
1979-07-20 00:16:41.310 ,4,0,0.,12.0,0.,12.0,0.,12.0,0.,12.0
1979-07-20 00:16:53.310 ,5,0,0.,12.0,0.,12.0,0.,12.0,0.,12.0
1979-07-20 00:17:05.310 ,5,0,0.,12.0,0.,12.0,0.,12.0,0.,12.0
1979-07-20 00:17:17.310 ,5,0,0.,12.0,0.,12.0,0.,12.0,0.,12.0
1979-07-20 00:17:29.310 ,5,0,0.,12.0,0.,12.0,0.,12.0,0.,12.0
1979-07-20 00:17:41.310 ,6,0,0.,12.0,0.,12.0,0.,12.0,0.,12.0
1979-07-20 00:17:53.310 ,6,0,0.,12.0,0.,12.0,0.,12.0,0.,12.0
1979-07-20 00:18:05.310 ,6,0,0.,12.0,0.,12.0,0.,12.0,0.,12.0
1979-07-20 00:18:17.310 ,6,0,0.,12.0,0.,12.0,0.,12.0,0.,12.0
1979-07-20 00:18:29.310 ,7,0,0.,12.0,0.,12.0,0.,12.0,0.,12.0
1979-07-20 00:18:41.310 ,7,0,0.,12.0,0.,12.0,0.,12.0,0.,12.0
1979-07-20 00:18:53.310 ,7,0,0.,12.0,0.,12.0,0.,12.0,0.,12.0
1979-07-20 00:19:05.310 ,7,0,0.,12.0,0.,12.0,0.,12.0,0.,12.0
1979-07-20 00:19:17.310 ,3,1,0.,12.0,0.,12.0,0.,12.0,0.,12.0
1979-07-20 00:19:29.310 ,3,1,0.,12.0,0.,12.0,0.,12.0,0.,12.0
1979-07-20 00:19:41.310 ,0,1,0.,12.0,0.,12.0,0.,12.0,0.,12.0
1979-07-20 00:19:53.310 ,0,1,0.,12.0,0.,12.0,0.,12.0,0.,12.0
1979-07-20 00:20:05.310 ,4,1,0.,12.0,0.,12.0,0.,12.0,0.,12.0
1979-07-20 00:20:17.310 ,4,1,0.,12.0,0.,12.0,0.,12.0,0.,12.0
1979-07-20 00:20:29.310 ,7,1,0.,12.0,0.,12.0,0.,12.0,0.,12.0
1979-07-20 00:20:41.310 ,7,1,0.,12.0,0.,12.0,0.,12.0,0.,12.0
1979-07-20 00:20:53.310 ,3,1,0.,12.0,0.,12.0,0.,12.0,0.,12.0
1979-07-20 00:21:05.310 ,3,1,0.,12.0,0.,12.0,0.,12.0,0.,12.0
1979-07-20 00:21:17.310 ,0,1,0.,12.0,0.,12.0,0.,12.0,0.,12.0
1979-07-20 00:21:29.310 ,0,1,0.,12.0,0.,12.0,0.,12.0,0.,12.0
1979-07-20 00:21:41.310 ,4,1,0.,12.0,0.,12.0,0.,12.0,0.,12.0
1979-07-20 00:21:53.310 ,4,1,0.,12.0,0.,12.0,0.,12.0,0.,12.0
1979-07-20 00:22:05.310 ,7,1,0.,12.0,0.,12.0,0.,12.0,0.,12.0
1979-07-20 00:22:17.310 ,7,1,0.,12.0,0.,12.0,0.,12.0,0.,12.0
1979-07-20 00:22:29.310 ,3,1,0.,12.0,0.,12.0,0.,12.0,0.,12.0
1979-07-20 00:22:41.310 ,3,1,0.,12.0,0.,12.0,0.,12.0,0.,12.0
1979-07-20 00:22:53.310 ,0,1,1.,12.0,0.,12.0,0.,12.0,0.,12.0
1979-07-20 00:23:05.310 ,0,1,0.,12.0,0.,12.0,0.,12.0,0.,12.0
1979-07-20 00:23:17.310 ,4,1,0.,12.0,0.,12.0,0.,12.0,0.,12.0
1979-07-20 00:23:29.310 ,4,1,0.,12.0,0.,12.0,0.,12.0,0.,12.0
1979-07-20 00:23:41.310 ,7,1,0.,12.0,0.,12.0,0.,12.0,0.,12.0
1979-07-20 00:23:53.310 ,7,1,0.,12.0,0.,12.0,0.,12.0,0.,12.0
1979-07-20 00:24:05.310 ,3,1,0.,12.0,0.,12.0,0.,12.0,0.,12.0
1979-07-20 00:24:17.310 ,3,1,0.,12.0,0.,12.0,0.,12.0,0.,12.0
1979-07-20 00:24:29.310 ,0,1,0.,12.0,0.,12.0,0.,12.0,0.,12.0
1979-07-20 00:24:41.310 ,0,1,0.,12.0,0.,12.0,0.,12.0,0.,12.0
1979-07-20 00:24:53.310 ,4,1,0.,12.0,0.,12.0,0.,12.0,0.,12.0
1979-07-20 00:25:05.310 ,4,1,0.,12.0,0.,12.0,0.,12.0,0.,12.0
1979-07-20 00:25:17.310 ,7,1,0.,12.0,0.,12.0,0.,12.0,0.,12.0
1979-07-20 00:25:29.310 ,7,1,0.,12.0,0.,12.0,0.,12.0,0.,12.0
1979-07-20 00:25:41.310 ,3,1,0.,12.0,0.,12.0,0.,12.0,0.,12.0
1979-07-20 00:25:53.310 ,3,1,0.,12.0,0.,12.0,0.,12.0,0.,12.0
1979-07-20 00:26:05.310 ,0,1,0.,12.0,0.,12.0,0.,12.0,0.,12.0
1979-07-20 00:26:17.310 ,0,1,0.,12.0,0.,12.0,0.,12.0,0.,12.0
1979-07-20 00:26:29.310 ,4,1,0.,12.0,0.,12.0,0.,12.0,0.,12.0
1979-07-20 00:26:41.310 ,4,1,0.,12.0,0.,12.0,0.,12.0,0.,12.0
1979-07-20 00:26:53.310 ,7,1,0.,12.0,0.,12.0,0.,12.0,0.,12.0
1979-07-20 00:27:05.310 ,7,1,0.,12.0,0.,12.0,0.,12.0,0.,12.0
1979-07-20 00:27:17.310 ,3,1,0.,12.0,0.,12.0,0.,12.0,0.,12.0
1979-07-20 00:27:29.310 ,3,1,0.,12.0,0.,12.0,0.,12.0,0.,12.0
1979-07-20 00:27:41.310 ,0,1,0.,12.0,0.,12.0,0.,12.0,0.,12.0
1979-07-20 00:27:53.310 ,0,1,0.,12.0,0.,12.0,0.,12.0,0.,12.0
1979-07-20 00:28:05.310 ,4,1,0.,12.0,0.,12.0,0.,12.0,0.,12.0
1979-07-20 00:28:17.310 ,4,1,0.,12.0,0.,12.0,0.,12.0,0.,12.0
1979-07-20 00:28:29.310 ,7,1,0.,12.0,0.,12.0,0.,12.0,0.,12.0
1979-07-20 00:28:41.310 ,7,1,0.,12.0,0.,12.0,0.,12.0,0.,12.0
1979-07-20 00:28:53.310 ,3,1,0.,12.0,0.,12.0,0.,12.0,0.,12.0
1979-07-20 00:29:05.310 ,3,1,0.,12.0,0.,12.0,0.,12.0,0.,12.0
1979-07-20 00:29:17.310 ,0,1,0.,12.0,0.,12.0,0.,12.0,0.,12.0
1979-07-20 00:29:29.310 ,0,1,0.,12.0,0.,12.0,0.,12.0,0.,12.0
1979-07-20 00:29:41.310 ,0,0,0.,12.0,0.,12.0,0.,12.0,0.,12.0
1979-07-20 00:29:53.310 ,0,0,0.,12.0,0.,12.0,0.,12.0,0.,12.0
1979-07-20 00:30:05.310 ,0,0,0.,12.0,0.,12.0,0.,12.0,0.,12.0
1979-07-20 00:30:17.310 ,0,0,0.,12.0,0.,12.0,0.,12.0,0.,12.0
1979-07-20 00:30:29.310 ,5,0,0.,12.0,0.,12.0,0.,12.0,0.,12.0
1979-07-20 00:30:41.310 ,5,0,0.,12.0,0.,12.0,0.,12.0,0.,12.0
1979-07-20 00:30:53.310 ,5,0,0.,12.0,0.,12.0,0.,12.0,0.,12.0
1979-07-20 00:31:05.310 ,5,0,0.,12.0,0.,12.0,0.,12.0,0.,12.0
1979-07-20 00:31:17.310 ,4,0,0.,12.0,0.,12.0,0.,12.0,0.,12.0
1979-07-20 00:31:29.310 ,4,0,0.,12.0,0.,12.0,0.,12.0,0.,12.0
1979-07-20 00:31:41.310 ,4,0,0.,12.0,0.,12.0,0.,12.0,0.,12.0
1979-07-20 00:31:53.310 ,4,0,0.,12.0,0.,12.0,0.,12.0,0.,12.0
1979-07-20 00:32:05.310 ,3,0,0.,12.0,0.,12.0,0.,12.0,0.,12.0
1979-07-20 00:32:17.310 ,3,0,0.,12.0,0.,12.0,0.,12.0,0.,12.0
1979-07-20 00:32:29.310 ,3,0,0.,12.0,0.,12.0,0.,12.0,0.,12.0
1979-07-20 00:32:41.310 ,3,0,0.,12.0,0.,12.0,0.,12.0,0.,12.0
1979-07-20 00:32:53.310 ,2,0,0.,12.0,0.,12.0,0.,12.0,0.,12.0
1979-07-20 00:33:05.310 ,2,0,0.,12.0,0.,12.0,0.,12.0,0.,12.0
1979-07-20 00:33:17.310 ,2,0,0.,12.0,0.,12.0,0.,12.0,0.,12.0
1979-07-20 00:33:29.310 ,2,0,0.,12.0,0.,12.0,0.,12.0,0.,12.0
1979-07-20 00:33:41.310 ,1,0,0.,12.0,0.,12.0,0.,12.0,0.,12.0
1979-07-20 00:33:53.310 ,1,0,0.,12.0,0.,12.0,0.,12.0,0.,12.0
1979-07-20 00:34:05.310 ,1,0,0.,12.0,0.,12.0,0.,12.0,0.,12.0
1979-07-20 00:34:17.310 ,1,0,0.,12.0,0.,12.0,0.,12.0,0.,12.0
1979-07-20 00:34:29.310 ,0,0,0.,12.0,0.,12.0,0.,12.0,0.,12.0
1979-07-20 00:34:41.310 ,0,0,0.,12.0,0.,12.0,0.,12.0,0.,12.0
1979-07-20 00:34:53.310 ,0,0,0.,12.0,0.,12.0,0.,12.0,0.,12.0
1979-07-20 00:35:05.310 ,0,0,0.,12.0,0.,12.0,0.,12.0,0.,12.0
1979-07-20 00:35:17.310 ,0,0,0.,12.0,0.,12.0,0.,12.0,0.,12.0
1979-07-20 00:35:29.310 ,0,0,0.,12.0,0.,12.0,0.,12.0,0.,12.0
1979-07-20 00:35:41.310 ,0,0,0.,12.0,0.,12.0,0.,12.0,0.,12.0
1979-07-20 00:35:53.310 ,0,0,0.,12.0,0.,12.0,0.,12.0,0.,12.0
1979-07-20 00:36:05.310 ,1,0,0.,12.0,0.,12.0,0.,12.0,0.,12.0
1979-07-20 00:36:17.310 ,1,0,0.,12.0,0.,12.0,0.,12.0,0.,12.0
1979-07-20 00:36:29.310 ,1,0,0.,12.0,0.,12.0,0.,12.0,0.,12.0
1979-07-20 00:36:41.310 ,1,0,0.,12.0,0.,12.0,0.,12.0,0.,12.0
1979-07-20 00:36:53.310 ,2,0,0.,12.0,0.,12.0,0.,12.0,0.,12.0
1979-07-20 00:37:05.310 ,2,0,0.,12.0,0.,12.0,0.,12.0,0.,12.0
1979-07-20 00:37:17.310 ,2,0,1.,12.0,0.,12.0,0.,12.0,0.,12.0
1979-07-20 00:37:29.310 ,2,0,0.,12.0,0.,12.0,0.,12.0,0.,12.0
1979-07-20 00:37:41.310 ,3,0,0.,12.0,0.,12.0,0.,12.0,0.,12.0
1979-07-20 00:37:53.310 ,3,0,0.,12.0,0.,12.0,0.,12.0,0.,12.0
1979-07-20 00:38:05.310 ,3,0,0.,12.0,0.,12.0,0.,12.0,0.,12.0
1979-07-20 00:38:17.310 ,3,0,0.,12.0,0.,12.0,0.,12.0,0.,12.0
1979-07-20 00:38:29.310 ,4,0,0.,12.0,0.,12.0,0.,12.0,0.,12.0
1979-07-20 00:38:41.310 ,4,0,0.,12.0,0.,12.0,0.,12.0,0.,12.0
1979-07-20 00:38:53.310 ,4,0,0.,12.0,0.,12.0,0.,12.0,0.,12.0
1979-07-20 00:39:05.310 ,4,0,0.,12.0,0.,12.0,0.,12.0,0.,12.0
1979-07-20 00:39:17.310 ,5,0,0.,12.0,0.,12.0,0.,12.0,0.,12.0
1979-07-20 00:39:29.310 ,5,0,0.,12.0,0.,12.0,0.,12.0,0.,12.0
1979-07-20 00:39:41.310 ,5,0,0.,12.0,0.,12.0,0.,12.0,0.,12.0
1979-07-20 00:39:53.310 ,5,0,0.,12.0,0.,12.0,0.,12.0,0.,12.0
1979-07-20 00:40:05.310 ,6,0,0.,12.0,0.,12.0,0.,12.0,0.,12.0
1979-07-20 00:40:17.310 ,6,0,0.,12.0,0.,12.0,0.,12.0,0.,12.0
1979-07-20 00:40:29.310 ,6,0,0.,12.0,0.,12.0,0.,12.0,0.,12.0
1979-07-20 00:40:41.310 ,6,0,0.,12.0,0.,12.0,0.,12.0,0.,12.0
1979-07-20 00:40:53.310 ,7,0,0.,12.0,0.,12.0,0.,12.0,0.,12.0
1979-07-20 00:41:05.310 ,7,0,0.,12.0,0.,12.0,0.,12.0,0.,12.0
1979-07-20 00:41:17.310 ,7,0,0.,12.0,0.,12.0,0.,12.0,0.,12.0
1979-07-20 00:41:29.310 ,7,0,0.,12.0,0.,12.0,0.,12.0,0.,12.0
1979-07-20 00:41:41.310 ,7,0,0.,12.0,0.,12.0,0.,12.0,0.,12.0
1979-07-20 00:41:53.310 ,7,0,0.,12.0,0.,12.0,0.,12.0,0.,12.0
1979-07-20 00:42:05.310 ,7,0,0.,12.0,0.,12.0,0.,12.0,0.,12.0
1979-07-20 00:42:17.310 ,7,0,0.,12.0,0.,12.0,0.,12.0,0.,12.0
1979-07-20 00:42:29.310 ,6,0,0.,12.0,0.,12.0,0.,12.0,0.,12.0
1979-07-20 00:42:41.310 ,6,0,0.,12.0,0.,12.0,0.,12.0,0.,12.0
1979-07-20 00:42:53.310 ,6,0,0.,12.0,0.,12.0,0.,12.0,0.,12.0
1979-07-20 00:43:05.310 ,6,0,0.,12.0,0.,12.0,0.,12.0,0.,12.0
1979-07-20 00:43:17.310 ,5,0,0.,12.0,0.,12.0,0.,12.0,0.,12.0
1979-07-20 00:43:29.310 ,5,0,0.,12.0,0.,12.0,0.,12.0,0.,12.0
1979-07-20 00:43:41.310 ,5,0,0.,12.0,0.,12.0,0.,12.0,0.,12.0
1979-07-20 00:43:53.310 ,5,0,0.,12.0,0.,12.0,0.,12.0,0.,12.0
1979-07-20 00:44:05.310 ,4,0,0.,12.0,0.,12.0,0.,12.0,0.,12.0
1979-07-20 00:44:17.310 ,4,0,0.,12.0,0.,12.0,0.,12.0,0.,12.0
1979-07-20 00:44:29.310 ,4,0,0.,12.0,0.,12.0,0.,12.0,0.,12.0
1979-07-20 00:44:41.310 ,4,0,0.,12.0,0.,12.0,0.,12.0,0.,12.0
1979-07-20 00:44:53.310 ,3,0,0.,12.0,0.,12.0,0.,12.0,0.,12.0
1979-07-20 00:45:05.310 ,3,0,0.,12.0,0.,12.0,0.,12.0,0.,12.0
1979-07-20 00:45:17.310 ,3,0,0.,12.0,0.,12.0,0.,12.0,0.,12.0
1979-07-20 00:45:29.310 ,3,0,1.,12.0,0.,12.0,0.,12.0,0.,12.0
1979-07-20 00:45:41.310 ,2,0,0.,12.0,0.,12.0,0.,12.0,0.,12.0
1979-07-20 00:45:53.310 ,2,0,0.,12.0,0.,12.0,0.,12.0,0.,12.0
1979-07-20 00:46:05.310 ,2,0,0.,12.0,0.,12.0,0.,12.0,0.,12.0
1979-07-20 00:46:17.310 ,2,0,0.,12.0,0.,12.0,0.,12.0,0.,12.0
1979-07-20 00:46:29.310 ,1,0,0.,12.0,0.,12.0,0.,12.0,0.,12.0
1979-07-20 00:46:41.310 ,1,0,0.,12.0,0.,12.0,0.,12.0,0.,12.0
1979-07-20 00:46:53.310 ,1,0,0.,12.0,0.,12.0,0.,12.0,0.,12.0
1979-07-20 00:47:05.310 ,1,0,0.,12.0,0.,12.0,0.,12.0,0.,12.0
1979-07-20 00:47:17.310 ,0,0,0.,12.0,0.,12.0,0.,12.0,0.,12.0
1979-07-20 00:47:29.310 ,0,0,0.,12.0,0.,12.0,0.,12.0,0.,12.0
1979-07-20 00:47:41.310 ,0,0,0.,12.0,0.,12.0,0.,12.0,0.,12.0
1979-07-20 00:47:53.310 ,0,0,0.,12.0,0.,12.0,0.,12.0,0.,12.0
1979-07-20 00:48:05.310 ,0,0,0.,12.0,0.,12.0,0.,12.0,0.,12.0
1979-07-20 00:48:17.310 ,0,0,0.,12.0,0.,12.0,0.,12.0,0.,12.0
1979-07-20 00:48:29.310 ,0,0,0.,12.0,0.,12.0,0.,12.0,0.,12.0
1979-07-20 00:48:41.310 ,0,0,0.,12.0,0.,12.0,0.,12.0,0.,12.0
1979-07-20 00:48:53.310 ,1,0,0.,12.0,0.,12.0,0.,12.0,0.,12.0
1979-07-20 00:49:05.310 ,1,0,0.,12.0,0.,12.0,0.,12.0,0.,12.0
1979-07-20 00:49:17.310 ,1,0,0.,12.0,0.,12.0,0.,12.0,0.,12.0
1979-07-20 00:49:29.310 ,1,0,0.,12.0,0.,12.0,0.,12.0,0.,12.0
1979-07-20 00:49:41.310 ,2,0,0.,12.0,0.,12.0,0.,12.0,0.,12.0
1979-07-20 00:49:53.310 ,2,0,0.,12.0,0.,12.0,0.,12.0,0.,12.0
1979-07-20 00:50:05.310 ,2,0,0.,12.0,0.,12.0,0.,12.0,0.,12.0
1979-07-20 00:50:17.310 ,2,0,0.,12.0,0.,12.0,0.,12.0,0.,12.0
1979-07-20 00:50:29.310 ,3,0,0.,12.0,0.,12.0,0.,12.0,0.,12.0
1979-07-20 00:50:41.310 ,3,0,0.,12.0,0.,12.0,0.,12.0,0.,12.0
1979-07-20 00:50:53.310 ,3,0,0.,12.0,0.,12.0,0.,12.0,0.,12.0
1979-07-20 00:51:05.310 ,3,0,0.,12.0,0.,12.0,0.,12.0,0.,12.0
1979-07-20 00:51:17.310 ,4,0,0.,12.0,0.,12.0,0.,12.0,0.,12.0
1979-07-20 00:51:29.310 ,4,0,0.,12.0,0.,12.0,0.,12.0,0.,12.0
1979-07-20 00:51:41.310 ,4,0,0.,12.0,0.,12.0,0.,12.0,0.,12.0
1979-07-20 00:51:53.310 ,4,0,0.,12.0,0.,12.0,0.,12.0,0.,12.0
1979-07-20 00:52:05.310 ,5,0,0.,12.0,0.,12.0,0.,12.0,0.,12.0
1979-07-20 00:52:17.310 ,5,0,0.,12.0,0.,12.0,0.,12.0,0.,12.0
1979-07-20 00:52:29.310 ,5,0,0.,12.0,0.,12.0,0.,12.0,0.,12.0
1979-07-20 00:52:41.310 ,5,0,0.,12.0,0.,12.0,0.,12.0,0.,12.0
1979-07-20 00:52:53.310 ,6,0,0.,12.0,0.,12.0,0.,12.0,0.,12.0
1979-07-20 00:53:05.310 ,6,0,0.,12.0,0.,12.0,0.,12.0,0.,12.0
1979-07-20 00:53:17.310 ,6,0,0.,12.0,0.,12.0,0.,12.0,0.,12.0
1979-07-20 00:53:29.310 ,6,0,0.,12.0,0.,12.0,0.,12.0,0.,12.0
1979-07-20 00:53:41.310 ,7,0,0.,12.0,0.,12.0,0.,12.0,0.,12.0
1979-07-20 00:53:53.310 ,7,0,0.,12.0,0.,12.0,0.,12.0,0.,12.0
1979-07-20 00:54:05.310 ,7,0,0.,12.0,0.,12.0,0.,12.0,0.,12.0
1979-07-20 00:54:17.310 ,7,0,0.,12.0,0.,12.0,0.,12.0,0.,12.0
1979-07-20 00:54:29.310 ,7,0,0.,12.0,0.,12.0,0.,12.0,0.,12.0
1979-07-20 00:54:41.310 ,7,0,0.,12.0,0.,12.0,0.,12.0,0.,12.0
1979-07-20 00:54:53.310 ,7,0,0.,12.0,0.,12.0,0.,12.0,0.,12.0
1979-07-20 00:55:05.310 ,7,0,0.,12.0,0.,12.0,0.,12.0,0.,12.0
1979-07-20 00:55:17.310 ,6,0,0.,12.0,0.,12.0,0.,12.0,0.,12.0
1979-07-20 00:55:29.310 ,6,0,0.,12.0,0.,12.0,0.,12.0,0.,12.0
1979-07-20 00:55:41.310 ,6,0,0.,12.0,0.,12.0,0.,12.0,0.,12.0
1979-07-20 00:55:53.310 ,6,0,0.,12.0,0.,12.0,0.,12.0,0.,12.0
1979-07-20 00:56:05.310 ,5,0,0.,12.0,0.,12.0,0.,12.0,0.,12.0
1979-07-20 00:56:17.310 ,5,0,0.,12.0,0.,12.0,0.,12.0,0.,12.0
1979-07-20 00:56:29.310 ,5,0,0.,12.0,0.,12.0,0.,12.0,0.,12.0
1979-07-20 00:56:41.310 ,5,0,0.,12.0,0.,12.0,0.,12.0,0.,12.0
1979-07-20 00:56:53.310 ,4,0,0.,12.0,0.,12.0,0.,12.0,0.,12.0
1979-07-20 00:57:05.310 ,4,0,0.,12.0,0.,12.0,0.,12.0,0.,12.0
1979-07-20 00:57:17.310 ,4,0,0.,12.0,0.,12.0,0.,12.0,0.,12.0
1979-07-20 00:57:29.310 ,4,0,0.,12.0,0.,12.0,0.,12.0,0.,12.0
1979-07-20 00:57:41.310 ,3,0,0.,12.0,0.,12.0,0.,12.0,0.,12.0
1979-07-20 00:57:53.310 ,3,0,0.,12.0,0.,12.0,0.,12.0,0.,12.0
1979-07-20 00:58:05.310 ,3,0,0.,12.0,0.,12.0,0.,12.0,0.,12.0
1979-07-20 00:58:17.310 ,3,0,0.,12.0,0.,12.0,0.,12.0,0.,12.0
1979-07-20 00:58:29.310 ,2,0,0.,12.0,0.,12.0,0.,12.0,0.,12.0
1979-07-20 00:58:41.310 ,2,0,0.,12.0,0.,12.0,0.,12.0,0.,12.0
1979-07-20 00:58:53.310 ,2,0,0.,12.0,0.,12.0,0.,12.0,0.,12.0
1979-07-20 00:59:05.310 ,2,0,0.,12.0,0.,12.0,0.,12.0,0.,12.0
1979-07-20 00:59:17.310 ,1,0,0.,12.0,0.,12.0,0.,12.0,0.,12.0
1979-07-20 00:59:29.310 ,1,0,0.,12.0,0.,12.0,0.,12.0,0.,12.0
1979-07-20 00:59:41.310 ,1,0,0.,12.0,0.,12.0,0.,12.0,0.,12.0
1979-07-20 00:59:53.310 ,1,0,0.,12.0,0.,12.0,0.,12.0,0.,12.0
1979-07-20 01:00:05.310 ,0,0,0.,12.0,0.,12.0,0.,12.0,0.,12.0
1979-07-20 01:00:17.310 ,0,0,0.,12.0,0.,12.0,0.,12.0,0.,12.0
1979-07-20 01:00:29.310 ,0,0,0.,12.0,0.,12.0,0.,12.0,0.,12.0
1979-07-20 01:00:41.310 ,0,0,0.,12.0,0.,12.0,0.,12.0,0.,12.0
1979-07-20 01:00:53.310 ,0,0,0.,12.0,0.,12.0,0.,12.0,0.,12.0
1979-07-20 01:01:05.310 ,0,0,0.,12.0,0.,12.0,0.,12.0,0.,12.0
1979-07-20 01:01:17.310 ,0,0,0.,12.0,0.,12.0,0.,12.0,0.,12.0
1979-07-20 01:01:29.310 ,0,0,0.,12.0,0.,12.0,0.,12.0,0.,12.0
1979-07-20 01:01:41.310 ,1,0,0.,12.0,0.,12.0,0.,12.0,0.,12.0
1979-07-20 01:01:53.310 ,1,0,0.,12.0,0.,12.0,0.,12.0,0.,12.0
1979-07-20 01:02:05.310 ,1,0,0.,12.0,0.,12.0,0.,12.0,0.,12.0
1979-07-20 01:02:17.310 ,1,0,0.,12.0,0.,12.0,0.,12.0,0.,12.0
1979-07-20 01:02:29.310 ,2,0,0.,12.0,0.,12.0,0.,12.0,0.,12.0
1979-07-20 01:02:41.310 ,2,0,0.,12.0,0.,12.0,0.,12.0,0.,12.0
1979-07-20 01:02:53.310 ,2,0,0.,12.0,0.,12.0,0.,12.0,0.,12.0
1979-07-20 01:03:05.310 ,2,0,0.,12.0,0.,12.0,0.,12.0,0.,12.0
1979-07-20 01:03:17.310 ,3,0,0.,12.0,0.,12.0,0.,12.0,0.,12.0
1979-07-20 01:03:29.310 ,3,0,0.,12.0,0.,12.0,0.,12.0,0.,12.0
1979-07-20 01:03:41.310 ,3,0,0.,12.0,0.,12.0,0.,12.0,0.,12.0
1979-07-20 01:03:53.310 ,3,0,0.,12.0,0.,12.0,0.,12.0,0.,12.0
1979-07-20 01:04:05.310 ,4,0,0.,12.0,0.,12.0,0.,12.0,0.,12.0
1979-07-20 01:04:17.310 ,4,0,0.,12.0,0.,12.0,0.,12.0,0.,12.0
1979-07-20 01:04:29.310 ,4,0,0.,12.0,0.,12.0,0.,12.0,0.,12.0
1979-07-20 01:04:41.310 ,4,0,0.,12.0,0.,12.0,0.,12.0,0.,12.0
1979-07-20 01:04:53.310 ,5,0,0.,12.0,0.,12.0,0.,12.0,0.,12.0
1979-07-20 01:05:05.310 ,5,0,0.,12.0,0.,12.0,0.,12.0,0.,12.0
1979-07-20 01:05:17.310 ,5,0,0.,12.0,0.,12.0,0.,12.0,0.,12.0
1979-07-20 01:05:29.310 ,5,0,0.,12.0,0.,12.0,0.,12.0,0.,12.0
1979-07-20 01:05:41.310 ,6,0,0.,12.0,0.,12.0,0.,12.0,0.,12.0
1979-07-20 01:05:53.310 ,6,0,0.,12.0,0.,12.0,0.,12.0,0.,12.0
1979-07-20 01:06:05.310 ,6,0,0.,12.0,0.,12.0,0.,12.0,0.,12.0
1979-07-20 01:06:17.310 ,6,0,0.,12.0,0.,12.0,0.,12.0,0.,12.0
1979-07-20 01:06:29.310 ,7,0,0.,12.0,0.,12.0,0.,12.0,0.,12.0
1979-07-20 01:06:41.310 ,7,0,0.,12.0,0.,12.0,0.,12.0,0.,12.0
1979-07-20 01:06:53.310 ,7,0,0.,12.0,0.,12.0,0.,12.0,0.,12.0
1979-07-20 01:07:05.310 ,7,0,0.,12.0,0.,12.0,0.,12.0,0.,12.0
1979-07-20 01:07:17.310 ,3,1,0.,12.0,0.,12.0,0.,12.0,0.,12.0
1979-07-20 01:07:29.310 ,3,1,0.,12.0,0.,12.0,0.,12.0,0.,12.0
1979-07-20 01:07:41.310 ,0,1,0.,12.0,0.,12.0,0.,12.0,0.,12.0
1979-07-20 01:07:53.310 ,0,1,0.,12.0,0.,12.0,0.,12.0,0.,12.0
1979-07-20 01:08:05.310 ,4,1,0.,12.0,0.,12.0,0.,12.0,0.,12.0
1979-07-20 01:08:17.310 ,4,1,0.,12.0,0.,12.0,0.,12.0,0.,12.0
1979-07-20 01:08:29.310 ,7,1,0.,12.0,0.,12.0,0.,12.0,0.,12.0
1979-07-20 01:08:41.310 ,7,1,0.,12.0,0.,12.0,0.,12.0,0.,12.0
1979-07-20 01:08:53.310 ,3,1,0.,12.0,0.,12.0,0.,12.0,0.,12.0
1979-07-20 01:09:05.310 ,3,1,0.,12.0,0.,12.0,0.,12.0,0.,12.0
1979-07-20 01:09:17.310 ,0,1,0.,12.0,0.,12.0,0.,12.0,0.,12.0
1979-07-20 01:09:29.310 ,0,1,0.,12.0,0.,12.0,0.,12.0,0.,12.0
1979-07-20 01:09:41.310 ,4,1,0.,12.0,0.,12.0,0.,12.0,0.,12.0
1979-07-20 01:09:53.310 ,4,1,0.,12.0,0.,12.0,0.,12.0,0.,12.0
1979-07-20 01:10:05.310 ,7,1,0.,12.0,0.,12.0,0.,12.0,0.,12.0
1979-07-20 01:10:17.310 ,7,1,0.,12.0,0.,12.0,0.,12.0,0.,12.0
1979-07-20 01:10:29.310 ,3,1,0.,12.0,0.,12.0,0.,12.0,0.,12.0
1979-07-20 01:10:41.310 ,3,1,0.,12.0,0.,12.0,0.,12.0,0.,12.0
1979-07-20 01:10:53.310 ,0,1,0.,12.0,0.,12.0,0.,12.0,0.,12.0
1979-07-20 01:11:05.310 ,0,1,0.,12.0,0.,12.0,0.,12.0,0.,12.0
1979-07-20 01:11:17.310 ,4,1,0.,12.0,0.,12.0,0.,12.0,0.,12.0
1979-07-20 01:11:29.310 ,4,1,0.,12.0,0.,12.0,0.,12.0,0.,12.0
1979-07-20 01:11:41.310 ,7,1,0.,12.0,0.,12.0,0.,12.0,0.,12.0
1979-07-20 01:11:53.310 ,7,1,0.,12.0,0.,12.0,0.,12.0,0.,12.0
1979-07-20 01:12:05.310 ,3,1,0.,12.0,0.,12.0,0.,12.0,0.,12.0
1979-07-20 01:12:17.310 ,3,1,0.,12.0,0.,12.0,0.,12.0,0.,12.0
1979-07-20 01:12:29.310 ,0,1,0.,12.0,0.,12.0,0.,12.0,0.,12.0
1979-07-20 01:12:41.310 ,0,1,0.,12.0,0.,12.0,0.,12.0,0.,12.0
1979-07-20 01:12:53.310 ,4,1,0.,12.0,0.,12.0,0.,12.0,0.,12.0
1979-07-20 01:13:05.310 ,4,1,0.,12.0,0.,12.0,0.,12.0,0.,12.0
1979-07-20 01:13:17.310 ,7,1,0.,12.0,0.,12.0,0.,12.0,0.,12.0
1979-07-20 01:13:29.310 ,7,1,0.,12.0,0.,12.0,0.,12.0,0.,12.0
1979-07-20 01:13:41.310 ,3,1,0.,12.0,0.,12.0,0.,12.0,0.,12.0
1979-07-20 01:13:53.310 ,3,1,0.,12.0,0.,12.0,0.,12.0,0.,12.0
1979-07-20 01:14:05.310 ,0,1,0.,12.0,0.,12.0,0.,12.0,0.,12.0
1979-07-20 01:14:17.310 ,0,1,0.,12.0,0.,12.0,0.,12.0,0.,12.0
1979-07-20 01:14:29.310 ,4,1,0.,12.0,0.,12.0,0.,12.0,0.,12.0
1979-07-20 01:14:41.310 ,4,1,0.,12.0,0.,12.0,0.,12.0,0.,12.0
1979-07-20 01:14:53.310 ,7,1,0.,12.0,0.,12.0,0.,12.0,0.,12.0
1979-07-20 01:15:05.310 ,7,1,0.,12.0,0.,12.0,0.,12.0,0.,12.0
1979-07-20 01:15:17.310 ,3,1,0.,12.0,0.,12.0,0.,12.0,0.,12.0
1979-07-20 01:15:29.310 ,3,1,0.,12.0,0.,12.0,0.,12.0,0.,12.0
1979-07-20 01:15:41.310 ,0,1,0.,12.0,0.,12.0,0.,12.0,0.,12.0
1979-07-20 01:15:53.310 ,0,1,0.,12.0,0.,12.0,0.,12.0,0.,12.0
1979-07-20 01:16:05.310 ,4,1,0.,12.0,0.,12.0,0.,12.0,0.,12.0
1979-07-20 01:16:17.310 ,4,1,0.,12.0,0.,12.0,0.,12.0,0.,12.0
1979-07-20 01:16:29.310 ,7,1,0.,12.0,0.,12.0,0.,12.0,0.,12.0
1979-07-20 01:16:41.310 ,7,1,0.,12.0,0.,12.0,0.,12.0,0.,12.0
1979-07-20 01:16:53.310 ,3,1,0.,12.0,0.,12.0,0.,12.0,0.,12.0
1979-07-20 01:17:05.310 ,3,1,0.,12.0,0.,12.0,0.,12.0,0.,12.0
1979-07-20 01:17:17.310 ,0,1,0.,12.0,0.,12.0,0.,12.0,0.,12.0
1979-07-20 01:17:29.310 ,0,1,0.,12.0,0.,12.0,0.,12.0,0.,12.0